This is the latest recevied weather packets stored in our database for station/object F1DKL-13. If no packets are shown the sender has not sent any weather packets the latest 10 day(s).
| Time | Temp. | Humidity | Pressure | Rain* | Wind** | Luminosity | Snow |
|---|---|---|---|---|---|---|---|
| 1778076305 | 15° C | 38% | 1016.1 hPa | 0 mm | - | - | - |
| 1778076005 | 16.11° C | 36% | 1016.1 hPa | 0 mm | - | - | - |
| 1778075705 | 17.22° C | 38% | 1016.1 hPa | 0 mm | - | - | - |
| 1778075405 | 17.22° C | 37% | 1016.1 hPa | 0 mm | - | - | - |
| 1778075105 | 17.22° C | 36% | 1016.1 hPa | 0 mm | - | - | - |
| 1778074805 | 18.33° C | 36% | 1016.1 hPa | 0 mm | - | - | - |
| 1778074505 | 19.44° C | 35% | 1016.1 hPa | 0 mm | - | - | - |
| 1778074205 | 20° C | 36% | 1016.1 hPa | 0 mm | - | - | - |
| 1778073905 | 19.44° C | 39% | 1016.1 hPa | 0 mm | - | - | - |
| 1778073605 | 20° C | 38% | 1016.1 hPa | 0 mm | - | - | - |
| 1778073305 | 19.44° C | 39% | 1016.1 hPa | 0 mm | - | - | - |
| 1778073005 | 19.44° C | 45% | 1017.2 hPa | 0 mm | - | - | - |
| 1778072705 | 18.89° C | 48% | 1017.2 hPa | 0 mm | - | - | - |
| 1778072405 | 18.33° C | 53% | 1017.2 hPa | 0 mm | - | - | - |
| 1778072105 | 16.67° C | 54% | 1017.2 hPa | 0 mm | - | - | - |
| 1778071805 | 15.56° C | 53% | 1017.2 hPa | 0 mm | - | - | - |
| 1778071505 | 14.44° C | 51% | 1017.2 hPa | 0 mm | - | - | - |
| 1778071505 | 14.44° C | 51% | 1017.2 hPa | 0 mm | - | - | - |
| 1778071205 | 14.44° C | 49% | 1016.1 hPa | 0 mm | - | - | - |
| 1778070905 | 14.44° C | 48% | 1016.1 hPa | 0 mm | - | - | - |
| 1778070605 | 14.44° C | 47% | 1016.1 hPa | 0 mm | - | - | - |
| 1778070305 | 15° C | 45% | 1016.1 hPa | 0 mm | - | - | - |
| 1778070005 | 15.56° C | 46% | 1016.1 hPa | 0 mm | - | - | - |
| 1778069705 | 16.11° C | 47% | 1016.1 hPa | 1.02 mm | - | - | - |
| 1778069405 | 16.67° C | 46% | 1017.2 hPa | 1.02 mm | - | - | - |
* Rain latest hour (hover to see other rain measurements)
** Current wind speed in m/s (hover to see current wind gust speed)